{"data":{"norad_id":45139,"intl_designator":"2020-008J","name":"ONEWEB-0026","alt_names":[],"object_type":"PAYLOAD","status":"ACTIVE","operator":null,"country":"UK","launch_date":"2020-02-06","launch_site_code":"TYMSC","launch_vehicle":null,"mission":null,"orbit_class":"UNKNOWN","rcs_meters":null,"size_class":null,"mass_kg":null,"dimensions":null,"purposes":["comms"],"wikipedia_slug":null,"has_3d_model":false,"image_url":null,"decayed_at":null,"tle_current":{"epoch":"2026-05-25T02:48:23.903712Z","epoch_age_seconds":75314,"freshness":"FRESH","line1":"1 45139U 20008J   26145.11694333  .00000647  00000+0  17902-2 0  9997","line2":"2 45139  87.8915  25.6587 0001641  82.8182 277.3133 13.11416453308080","mean_motion":13.11416453,"eccentricity":0.0001641,"inclination_deg":87.8915,"raan_deg":25.6587,"arg_perigee_deg":82.8182,"mean_anomaly_deg":277.3133,"bstar":0.0017902,"rev_number":30808,"period_min":109.80493623561,"perigee_km":1216.4381238493,"apogee_km":1218.9310724978,"semimajor_km":7595.8215981735,"source":"CELESTRAK","updated_at":"2026-05-25T13:38:22.334586Z"}}}